EW9174 Weather Reports


Display with metric or nautical units.
time (UTC)temp
F
wind
direction
speed
MPH
gust
MPH
rain 1hr
in
rain 24hr
in
rain mn
in
humidity
%
barometer
mb
20260503203059 79 40 3.0 7.0 0.00 0.00 0.00 15 1006.2
20260503201555 79 29 3.0 7.0 0.00 0.00 0.00 14 1006.6
20260503200054 78 26 1.0 5.0 0.00 0.00 0.00 16 1006.8
20260503194549 77 31 3.0 10.0 0.00 0.00 0.00 16 1007.0
20260503193049 77 344 1.0 7.0 0.00 0.00 0.00 17 1007.2
20260503191544 77 19 2.0 8.0 0.00 0.00 0.00 17 1007.6
20260503190044 76 32 2.0 6.0 0.00 0.00 0.00 17 1008.1
20260503184539 75 24 2.0 6.0 0.00 0.00 0.00 18 1008.3
20260503183033 74 17 3.0 9.0 0.00 0.00 0.00 18 1008.7
20260503181531 74 34 2.0 8.0 0.00 0.00 0.00 20 1008.9
20260503180042 74 342 3.0 10.0 0.00 0.00 0.00 19 1009.2
20260503174528 73 28 3.0 7.0 0.00 0.00 0.00 18 1009.5
20260503173025 73 330 2.0 9.0 0.00 0.00 0.00 19 1009.7
20260503171526 73 332 4.0 9.0 0.00 0.00 0.00 19 1009.9
20260503081602 43 34 0.0 2.0 0.00 0.00 0.00 70 1012.4
20260503071557 44 36 0.0 0.0 0.00 0.00 0.00 69 1012.6
20260503060106 49 36 0.0 0.0 0.00 0.00 0.00 59 1012.9
20260503054539 49 36 0.0 2.0 0.00 0.00 0.00 54 1013.1
20260503053037 49 36 0.0 0.0 0.00 0.00 0.00 50 1012.9
20260503051536 49 36 0.0 0.0 0.00 0.00 0.00 49 1013.0
20260503050037 50 36 0.0 0.0 0.00 0.00 0.00 46 1013.1
20260503044536 51 36 0.0 0.0 0.00 0.00 0.00 46 1013.3
20260503043046 52 36 0.0 0.0 0.00 0.00 0.00 44 1013.2
20260503041535 53 36 0.0 0.0 0.00 0.00 0.00 43 1013.2
20260503040042 54 36 0.0 0.0 0.00 0.00 0.00 41 1013.2
20260503034538 54 36 0.0 0.0 0.00 0.00 0.00 41 1013.1
20260503033036 54 36 0.0 0.0 0.00 0.00 0.00 39 1013.0
20260503031533 54 36 0.0 0.0 0.00 0.00 0.00 40 1012.9
20260503030032 55 36 0.0 0.0 0.00 0.00 0.00 41 1012.8
20260503024532 57 36 0.0 0.0 0.00 0.00 0.00 40 1012.8
20260503023031 59 36 0.0 0.0 0.00 0.00 0.00 34 1012.6
20260503021541 61 36 0.0 0.0 0.00 0.00 0.00 31 1012.5
20260503020030 64 36 0.0 0.0 0.00 0.00 0.00 28 1012.4
20260503014529 66 36 0.0 0.0 0.00 0.00 0.00 25 1012.4
20260503013029 69 36 0.0 0.0 0.00 0.00 0.00 22 1012.3
20260503011528 71 36 0.0 0.0 0.00 0.00 0.00 19 1012.2
20260503010028 72 36 0.0 1.0 0.00 0.00 0.00 19 1012.3
20260503004525 74 32 0.0 1.0 0.00 0.00 0.00 19 1012.4
20260503003024 75 32 0.0 2.0 0.00 0.00 0.00 16 1012.5
20260503001522 76 30 0.0 1.0 0.00 0.00 0.00 18 1012.7
20260503000019 76 30 0.0 1.0 0.00 0.00 0.00 19 1012.9
20260502234518 76 30 0.0 1.0 0.00 0.00 0.00 20 1013.1
20260502233017 76 30 0.0 1.0 0.00 0.00 0.00 18 1013.2
20260502231520 76 30 0.0 1.0 0.00 0.00 0.00 18 1013.3
20260502230016 76 29 0.0 3.0 0.00 0.00 0.00 18 1013.4
20260502224521 76 30 0.0 3.0 0.00 0.00 0.00 21 1013.5
20260502223011 76 28 0.0 2.0 0.00 0.00 0.00 21 1013.8
20260502221509 75 27 0.0 3.0 0.00 0.00 0.00 21 1014.1
20260502220006 76 27 0.0 1.0 0.00 0.00 0.00 22 1014.4
20260502214503 75 26 0.0 1.0 0.00 0.00 0.00 22 1014.7
20260502213001 75 27 0.0 1.0 0.00 0.00 0.00 24 1015.0
20260502211558 75 26 0.0 2.0 0.00 0.00 0.00 24 1015.4
20260502210054 74 26 0.0 1.0 0.00 0.00 0.00 22 1015.8
20260502204554 74 24 0.0 3.0 0.00 0.00 0.00 21 1016.0